contact:dominique.lefevre@mio.osupytheas.fr, maurice.libes@osupytheas.fr, didier.mallarino@osupytheas.fr
Project:EMSO http://www.emso-fr.org/EMSO-France
Depth: 2436.0 m
Title:EMSO Ligure Ouest : Data MII capteur AQUADOPP
Date,Latitude,Longitude,X_East,Y_North,Z_Up,Amplitude_X,Amplitude_Y,Amplitude_Z,Batterie,SoundSpeed,Heading,Pitch,Roll,Pressure,TIS,Speed,Direction
, degrees North, degrees East, m.s-1, m.s-1,m.s-1, 1, 1, 1, Volt, m.s-1, degree, degree, degree, dbar, degree_C, m.s-1, degree
2021-09-17T00:04:03,42.805,6.029,-0.03,-0.016,-0.044,100.0,100.0,99.0,13.4,1505.2,330.9,-0.8,1.8,2470.636,13.28,0.034,241.9
2021-09-17T00:07:03,42.805,6.029,-0.065,-0.039,-0.066,101.0,100.0,100.0,13.4,1505.2,327.2,-0.7,1.8,2470.609,13.28,0.075,239.0
2021-09-17T00:10:03,42.805,6.029,-0.06,-0.025,-0.036,100.0,100.0,101.0,13.4,1505.2,329.1,-0.8,1.8,2470.644,13.28,0.064,247.4
2021-09-17T00:13:03,42.805,6.029,-0.057,-0.029,-0.018,102.0,100.0,99.0,13.4,1505.2,329.5,-0.7,1.8,2470.614,13.28,0.063,243.0
2021-09-17T00:16:03,42.805,6.029,-0.055,-0.03,-0.021,102.0,100.0,99.0,13.3,1505.2,327.8,-0.7,1.8,2470.638,13.28,0.062,241.4
2021-09-17T00:19:03,42.805,6.029,-0.033,-0.031,-0.025,99.0,100.0,100.0,13.3,1505.2,325.9,-0.8,1.8,2470.637,13.28,0.045,226.8
2021-09-17T00:22:03,42.805,6.029,-0.036,-0.02,-0.033,100.0,100.0,100.0,13.3,1505.2,329.9,-0.8,1.8,2470.605,13.28,0.041,240.9
2021-09-17T00:25:03,42.805,6.029,-0.05,-0.021,-0.041,101.0,100.0,99.0,13.4,1505.2,329.0,-0.7,1.8,2470.646,13.28,0.054,247.2
2021-09-17T00:28:03,42.805,6.029,-0.062,-0.01,-0.032,101.0,100.0,100.0,13.4,1505.2,327.3,-0.8,1.8,2470.615,13.28,0.062,260.8
2021-09-17T00:31:03,42.805,6.029,-0.033,-0.02,-0.001,100.0,101.0,100.0,13.4,1505.2,327.6,-0.8,1.8,2470.649,13.28,0.038,238.8
2021-09-17T00:34:03,42.805,6.029,-0.02,-0.046,-0.02,99.0,101.0,101.0,13.4,1505.2,328.6,-0.7,1.8,2470.635,13.28,0.05,203.5
2021-09-17T00:37:03,42.805,6.029,-0.068,-0.014,-0.034,100.0,100.0,100.0,13.4,1505.2,329.6,-0.7,1.8,2470.617,13.28,0.069,258.4
2021-09-17T00:40:03,42.805,6.029,-0.055,-0.019,-0.05,99.0,101.0,103.0,13.4,1505.2,329.6,-0.7,1.8,2470.661,13.28,0.058,250.9
2021-09-17T00:43:03,42.805,6.029,-0.034,-0.032,-0.048,101.0,99.0,99.0,13.4,1505.2,329.7,-0.7,1.8,2470.605,13.28,0.046,226.7
2021-09-17T00:46:03,42.805,6.029,-0.058,-0.018,-0.035,101.0,100.0,99.0,13.3,1505.2,326.1,-0.7,1.8,2470.587,13.28,0.06,252.8
2021-09-17T00:49:03,42.805,6.029,-0.043,-0.008,-0.002,100.0,100.0,100.0,13.4,1505.2,327.5,-0.7,1.8,2470.607,13.28,0.043,259.5
2021-09-17T00:52:03,42.805,6.029,-0.044,-0.017,-0.009,101.0,100.0,100.0,13.4,1505.2,331.4,-0.8,1.8,2470.6,13.28,0.047,248.9
2021-09-17T00:55:03,42.805,6.029,-0.065,-0.041,-0.032,100.0,100.0,100.0,13.4,1505.2,329.2,-0.7,1.8,2470.607,13.28,0.076,237.8
2021-09-17T00:58:03,42.805,6.029,-0.043,0.001,-0.007,101.0,100.0,99.0,13.3,1505.2,331.2,-0.8,1.8,2470.63,13.28,0.043,271.3
2021-09-17T01:04:03,42.805,6.029,-0.014,-0.045,-0.025,103.0,103.0,102.0,13.3,1505.2,329.6,-0.7,1.8,2470.67,13.28,0.047,197.3
2021-09-17T01:07:03,42.805,6.029,-0.037,-0.011,-0.016,101.0,101.0,102.0,13.4,1505.2,330.1,-0.7,1.8,2470.654,13.28,0.038,253.4
2021-09-17T01:10:03,42.805,6.029,-0.025,-0.015,-0.02,102.0,101.0,101.0,13.3,1505.2,330.7,-0.7,1.8,2470.672,13.28,0.029,239.0
2021-09-17T01:13:03,42.805,6.029,-0.02,-0.034,-0.02,101.0,100.0,100.0,13.4,1505.2,328.3,-0.7,1.8,2470.668,13.28,0.039,210.5
2021-09-17T01:16:03,42.805,6.029,-0.035,-0.017,-0.035,100.0,100.0,99.0,13.4,1505.2,326.7,-0.8,1.8,2470.667,13.28,0.038,244.1
2021-09-17T01:19:03,42.805,6.029,-0.065,-0.032,-0.014,100.0,100.0,99.0,13.3,1505.2,325.9,-0.8,1.8,2470.662,13.28,0.072,243.8
2021-09-17T01:22:03,42.805,6.029,-0.054,-0.042,-0.035,99.0,100.0,100.0,13.4,1505.2,327.6,-0.7,1.8,2470.659,13.28,0.068,232.1
2021-09-17T01:25:03,42.805,6.029,-0.065,-0.008,-0.034,100.0,101.0,99.0,13.3,1505.2,327.1,-0.8,1.8,2470.656,13.28,0.065,263.0
2021-09-17T01:28:03,42.805,6.029,-0.03,-0.027,-0.004,100.0,99.0,99.0,13.4,1505.2,326.9,-0.8,1.8,2470.655,13.28,0.04,228.0
2021-09-17T01:31:03,42.805,6.029,-0.033,-0.028,-0.026,101.0,98.0,100.0,13.3,1505.2,329.6,-0.8,1.8,2470.603,13.28,0.043,229.7
2021-09-17T01:34:03,42.805,6.029,-0.03,-0.032,-0.042,101.0,99.0,100.0,13.4,1505.2,327.5,-0.7,1.8,2470.631,13.28,0.043,223.1
2021-09-17T01:37:03,42.805,6.029,-0.054,-0.025,-0.02,101.0,100.0,99.0,13.4,1505.2,327.1,-0.7,1.8,2470.638,13.28,0.059,245.2
2021-09-17T01:40:03,42.805,6.029,-0.043,-0.016,-0.033,101.0,100.0,99.0,13.4,1505.2,326.5,-0.8,1.8,2470.621,13.28,0.045,249.6
2021-09-17T01:43:03,42.805,6.029,-0.06,-0.049,-0.06,101.0,98.0,100.0,13.4,1505.2,329.1,-0.8,1.8,2470.668,13.28,0.077,230.8
2021-09-17T01:46:03,42.805,6.029,-0.052,-0.045,-0.035,100.0,100.0,100.0,13.3,1505.2,329.4,-0.8,1.8,2470.621,13.28,0.068,229.1
2021-09-17T01:49:03,42.805,6.029,-0.049,-0.03,-0.047,100.0,100.0,100.0,13.4,1505.2,327.5,-0.7,1.8,2470.645,13.28,0.057,238.5
2021-09-17T01:52:03,42.805,6.029,-0.046,-0.002,-0.013,100.0,100.0,100.0,13.4,1505.2,330.3,-0.8,1.8,2470.639,13.28,0.046,267.5
2021-09-17T01:55:03,42.805,6.029,-0.055,-0.047,-0.056,102.0,101.0,100.0,13.4,1505.2,330.5,-0.7,1.8,2470.641,13.28,0.072,229.5
2021-09-17T01:58:03,42.805,6.029,-0.048,-0.009,0.0,101.0,99.0,100.0,13.4,1505.2,331.0,-0.8,1.8,2470.623,13.28,0.048,259.4
2021-09-17T02:04:03,42.805,6.029,-0.055,-0.013,0.011,100.0,100.0,100.0,13.4,1505.2,325.5,-0.8,1.8,2470.677,13.28,0.056,256.7
2021-09-17T02:07:03,42.805,6.029,-0.046,-0.021,-0.009,100.0,98.0,101.0,13.4,1505.2,325.3,-0.8,1.8,2470.637,13.28,0.05,245.5
2021-09-17T02:10:03,42.805,6.029,-0.044,-0.036,-0.038,100.0,102.0,100.0,13.4,1505.2,329.4,-0.8,1.8,2470.687,13.28,0.056,230.7
2021-09-17T02:13:03,42.805,6.029,-0.05,-0.044,-0.068,101.0,100.0,99.0,13.3,1505.2,328.4,-0.7,1.8,2470.637,13.28,0.066,228.7
2021-09-17T02:16:03,42.805,6.029,-0.041,-0.03,-0.02,100.0,101.0,100.0,13.3,1505.2,327.2,-0.7,1.8,2470.688,13.28,0.05,233.8
2021-09-17T02:19:03,42.805,6.029,-0.034,-0.015,-0.012,101.0,100.0,100.0,13.3,1505.2,327.3,-0.8,1.8,2470.686,13.28,0.037,246.2
2021-09-17T02:22:03,42.805,6.029,-0.034,-0.04,-0.028,100.0,99.0,100.0,13.3,1505.2,329.9,-0.8,1.8,2470.638,13.28,0.052,220.4
2021-09-17T02:25:03,42.805,6.029,-0.042,-0.035,-0.045,100.0,100.0,100.0,13.4,1505.2,328.6,-0.7,1.8,2470.643,13.28,0.054,230.2
2021-09-17T02:28:03,42.805,6.029,-0.082,-0.02,-0.024,101.0,99.0,100.0,13.4,1505.2,326.8,-0.8,1.8,2470.673,13.28,0.084,256.3
2021-09-17T02:31:03,42.805,6.029,-0.045,-0.02,-0.054,100.0,100.0,100.0,13.4,1505.2,328.9,-0.8,1.8,2470.644,13.28,0.049,246.0
2021-09-17T02:34:03,42.805,6.029,-0.056,-0.046,-0.045,100.0,101.0,100.0,13.4,1505.2,328.4,-0.7,1.8,2470.646,13.28,0.072,230.6
2021-09-17T02:37:03,42.805,6.029,-0.044,-0.037,-0.013,101.0,100.0,100.0,13.4,1505.2,325.8,-0.8,1.8,2470.629,13.28,0.057,229.9
2021-09-17T02:40:03,42.805,6.029,-0.035,-0.029,-0.021,100.0,100.0,99.0,13.3,1505.2,325.8,-0.8,1.8,2470.676,13.28,0.045,230.4
2021-09-17T02:43:03,42.805,6.029,-0.052,-0.034,-0.03,100.0,100.0,100.0,13.3,1505.2,329.3,-0.7,1.8,2470.669,13.28,0.062,236.8
2021-09-17T02:46:03,42.805,6.029,-0.057,-0.038,-0.065,100.0,100.0,100.0,13.4,1505.2,329.6,-0.7,1.8,2470.655,13.28,0.068,236.3
2021-09-17T02:49:03,42.805,6.029,-0.06,-0.023,-0.04,100.0,99.0,99.0,13.3,1505.2,327.0,-0.7,1.8,2470.618,13.28,0.064,249.0
2021-09-17T02:52:03,42.805,6.029,-0.052,-0.045,-0.032,100.0,100.0,100.0,13.4,1505.2,330.1,-0.7,1.8,2470.641,13.28,0.068,229.1
2021-09-17T02:55:03,42.805,6.029,-0.069,-0.034,-0.063,101.0,99.0,100.0,13.4,1505.2,330.4,-0.7,1.8,2470.626,13.28,0.076,243.8
2021-09-17T02:58:03,42.805,6.029,-0.05,-0.007,-0.066,99.0,102.0,99.0,13.3,1505.2,328.5,-0.8,1.8,2470.671,13.28,0.05,262.0
2021-09-17T03:04:03,42.805,6.029,-0.025,-0.031,-0.024,99.0,101.0,101.0,13.4,1505.2,330.5,-0.8,1.8,2470.697,13.28,0.039,218.9
2021-09-17T03:07:03,42.805,6.029,-0.063,-0.03,-0.073,102.0,101.0,98.0,13.4,1505.2,327.3,-0.7,1.8,2470.649,13.28,0.069,244.5
2021-09-17T03:10:03,42.805,6.029,-0.038,-0.039,-0.032,100.0,100.0,100.0,13.4,1505.2,326.7,-0.8,1.8,2470.651,13.28,0.054,224.3
2021-09-17T03:13:03,42.805,6.029,-0.058,-0.026,-0.01,101.0,100.0,100.0,13.4,1505.2,328.3,-0.8,1.8,2470.666,13.28,0.063,245.9
2021-09-17T03:16:03,42.805,6.029,-0.063,-0.015,-0.034,101.0,100.0,100.0,13.3,1505.2,329.8,-0.8,1.8,2470.663,13.28,0.064,256.6
2021-09-17T03:19:03,42.805,6.029,-0.061,-0.014,-0.002,100.0,102.0,99.0,13.4,1505.2,330.1,-0.7,1.9,2470.697,13.28,0.062,257.1
2021-09-17T03:22:03,42.805,6.029,-0.032,-0.032,-0.017,100.0,100.0,100.0,13.4,1505.2,328.4,-0.7,1.9,2470.661,13.28,0.045,225.0
2021-09-17T03:25:03,42.805,6.029,-0.023,-0.029,-0.018,100.0,100.0,101.0,13.4,1505.2,327.5,-0.7,1.8,2470.666,13.28,0.037,218.4
2021-09-17T03:28:03,42.805,6.029,-0.035,-0.042,-0.031,102.0,98.0,99.0,13.3,1505.2,328.7,-0.8,1.8,2470.655,13.28,0.054,219.8
2021-09-17T03:31:03,42.805,6.029,-0.021,-0.03,-0.02,101.0,100.0,99.0,13.3,1505.2,324.9,-0.8,1.8,2470.666,13.28,0.036,215.0
2021-09-17T03:34:03,42.805,6.029,-0.034,-0.032,-0.018,101.0,99.0,100.0,13.4,1505.2,329.0,-0.8,1.8,2470.646,13.28,0.046,226.7
2021-09-17T03:37:03,42.805,6.029,-0.058,-0.028,-0.012,100.0,102.0,100.0,13.4,1505.2,329.3,-0.8,1.9,2470.705,13.28,0.064,244.2
2021-09-17T03:40:03,42.805,6.029,-0.062,-0.041,-0.052,101.0,99.0,99.0,13.4,1505.2,331.4,-0.8,1.8,2470.634,13.28,0.074,236.5
2021-09-17T03:43:03,42.805,6.029,-0.067,-0.02,-0.043,100.0,100.0,100.0,13.4,1505.2,327.7,-0.8,1.8,2470.646,13.28,0.069,253.4
2021-09-17T03:46:03,42.805,6.029,-0.073,-0.05,-0.033,100.0,100.0,100.0,13.4,1505.2,326.6,-0.8,1.8,2470.664,13.28,0.088,235.6
2021-09-17T03:49:03,42.805,6.029,-0.042,-0.036,-0.051,101.0,100.0,101.0,13.4,1505.2,331.4,-0.7,1.9,2470.732,13.28,0.055,229.4
2021-09-17T03:52:03,42.805,6.029,-0.035,-0.039,-0.023,100.0,101.0,100.0,13.3,1505.2,330.8,-0.7,1.8,2470.697,13.28,0.052,221.9
2021-09-17T03:55:03,42.805,6.029,-0.054,-0.033,-0.034,100.0,101.0,100.0,13.4,1505.2,328.4,-0.8,1.8,2470.648,13.28,0.063,238.6
2021-09-17T03:58:03,42.805,6.029,-0.038,-0.046,-0.056,101.0,100.0,100.0,13.3,1505.2,328.5,-0.8,1.8,2470.659,13.28,0.059,219.6
2021-09-17T04:04:03,42.805,6.029,-0.059,-0.025,-0.007,100.0,100.0,100.0,13.4,1505.2,327.6,-0.7,1.8,2470.69,13.28,0.064,247.0
2021-09-17T04:07:03,42.805,6.029,-0.035,-0.046,-0.031,101.0,100.0,100.0,13.3,1505.2,329.2,-0.8,1.8,2470.688,13.28,0.057,217.3
2021-09-17T04:10:03,42.805,6.029,-0.048,-0.019,-0.029,100.0,101.0,100.0,13.3,1505.2,325.3,-0.7,1.8,2470.695,13.28,0.051,248.4
2021-09-17T04:13:03,42.805,6.029,-0.065,-0.023,-0.039,101.0,100.0,100.0,13.4,1505.2,327.9,-0.7,1.8,2470.694,13.28,0.068,250.5
2021-09-17T04:16:03,42.805,6.029,-0.058,-0.031,-0.024,101.0,100.0,100.0,13.4,1505.2,327.6,-0.8,1.8,2470.693,13.28,0.065,241.9
2021-09-17T04:19:03,42.805,6.029,-0.049,-0.026,-0.006,100.0,101.0,100.0,13.4,1505.2,326.6,-0.7,1.8,2470.752,13.28,0.055,242.1
2021-09-17T04:22:03,42.805,6.029,-0.044,-0.041,-0.023,100.0,101.0,100.0,13.3,1505.2,327.8,-0.8,1.8,2470.667,13.28,0.06,227.0
2021-09-17T04:25:03,42.805,6.029,-0.058,-0.02,-0.022,101.0,100.0,100.0,13.4,1505.2,327.4,-0.8,1.8,2470.669,13.28,0.061,251.0
2021-09-17T04:28:03,42.805,6.029,-0.071,-0.037,-0.044,99.0,101.0,99.0,13.4,1505.2,327.4,-0.7,1.8,2470.677,13.28,0.08,242.5
2021-09-17T04:31:03,42.805,6.029,-0.048,-0.021,0.0,100.0,100.0,101.0,13.3,1505.2,326.7,-0.7,1.8,2470.668,13.28,0.052,246.4
2021-09-17T04:34:03,42.805,6.029,-0.048,-0.037,-0.04,100.0,101.0,100.0,13.4,1505.2,329.0,-0.7,1.8,2470.669,13.28,0.06,232.4
2021-09-17T04:37:03,42.805,6.029,-0.055,-0.017,-0.015,101.0,100.0,100.0,13.4,1505.2,327.1,-0.7,1.8,2470.682,13.28,0.057,252.8
2021-09-17T04:40:03,42.805,6.029,-0.074,-0.035,-0.062,101.0,100.0,100.0,13.4,1505.2,326.5,-0.7,1.8,2470.654,13.28,0.081,244.7
2021-09-17T04:43:03,42.805,6.029,-0.052,-0.033,-0.041,100.0,100.0,100.0,13.3,1505.2,326.5,-0.8,1.8,2470.669,13.28,0.061,237.6
2021-09-17T04:46:03,42.805,6.029,-0.051,-0.033,-0.044,100.0,100.0,100.0,13.3,1505.2,327.1,-0.7,1.8,2470.667,13.28,0.06,237.1
2021-09-17T04:49:03,42.805,6.029,-0.049,-0.031,-0.067,101.0,100.0,99.0,13.4,1505.2,328.8,-0.8,1.8,2470.681,13.28,0.057,237.7
2021-09-17T04:52:03,42.805,6.029,-0.05,-0.021,-0.04,98.0,100.0,101.0,13.4,1505.2,331.2,-0.8,1.8,2470.678,13.28,0.054,247.2
2021-09-17T04:55:03,42.805,6.029,-0.034,-0.025,-0.044,101.0,100.0,99.0,13.3,1505.2,328.1,-0.7,1.8,2470.681,13.28,0.042,233.7
2021-09-17T04:58:03,42.805,6.029,-0.054,-0.031,-0.041,100.0,101.0,101.0,13.4,1505.2,326.8,-0.8,1.8,2470.668,13.28,0.062,240.1
2021-09-17T05:04:03,42.805,6.029,-0.049,-0.012,-0.029,100.0,100.0,100.0,13.3,1505.2,329.7,-0.8,1.8,2470.692,13.28,0.05,256.2
2021-09-17T05:07:03,42.805,6.029,-0.064,-0.039,-0.028,100.0,100.0,100.0,13.4,1505.2,329.3,-0.8,1.8,2470.694,13.28,0.074,238.6
2021-09-17T05:10:03,42.805,6.029,-0.042,-0.031,-0.012,101.0,99.0,99.0,13.3,1505.2,329.6,-0.8,1.8,2470.692,13.28,0.052,233.6
2021-09-17T05:13:03,42.805,6.029,-0.024,-0.026,-0.023,101.0,100.0,99.0,13.4,1505.2,327.5,-0.7,1.8,2470.664,13.28,0.035,222.7
2021-09-17T05:16:03,42.805,6.029,-0.047,-0.049,-0.031,101.0,101.0,99.0,13.4,1505.2,325.3,-0.8,1.8,2470.668,13.28,0.067,223.8
2021-09-17T05:19:03,42.805,6.029,-0.074,-0.017,-0.016,101.0,100.0,100.0,13.4,1505.2,327.7,-0.8,1.8,2470.715,13.28,0.075,257.1
2021-09-17T05:22:03,42.805,6.029,-0.071,-0.023,-0.036,100.0,100.0,99.0,13.4,1505.2,329.9,-0.8,1.8,2470.681,13.28,0.074,252.1
2021-09-17T05:25:03,42.805,6.029,-0.041,-0.033,-0.024,99.0,101.0,100.0,13.4,1505.2,328.5,-0.7,1.8,2470.679,13.28,0.052,231.2
2021-09-17T05:28:03,42.805,6.029,-0.06,-0.021,-0.05,103.0,99.0,99.0,13.4,1505.2,327.1,-0.8,1.8,2470.657,13.28,0.063,250.7
2021-09-17T05:31:03,42.805,6.029,-0.054,-0.021,-0.012,102.0,101.0,100.0,13.3,1505.2,327.5,-0.7,1.9,2470.679,13.28,0.057,248.8
2021-09-17T05:34:03,42.805,6.029,-0.059,-0.038,-0.025,100.0,100.0,100.0,13.3,1505.2,325.4,-0.7,1.8,2470.637,13.28,0.07,237.2
2021-09-17T05:37:03,42.805,6.029,-0.02,-0.047,-0.035,101.0,100.0,100.0,13.4,1505.2,329.4,-0.8,1.8,2470.688,13.28,0.051,203.0
2021-09-17T05:40:03,42.805,6.029,-0.036,-0.027,-0.04,101.0,100.0,100.0,13.4,1505.2,328.0,-0.8,1.8,2470.655,13.28,0.045,233.1
2021-09-17T05:43:03,42.805,6.029,-0.037,-0.002,-0.007,100.0,99.0,100.0,13.4,1505.2,331.0,-0.7,1.8,2470.683,13.28,0.037,266.9
2021-09-17T05:46:03,42.805,6.029,-0.061,-0.021,-0.061,100.0,100.0,100.0,13.4,1505.2,329.9,-0.7,1.8,2470.65,13.28,0.064,251.0
2021-09-17T05:49:03,42.805,6.029,-0.044,-0.033,-0.017,98.0,101.0,101.0,13.4,1505.2,330.0,-0.8,1.8,2470.679,13.28,0.055,233.1
2021-09-17T05:52:03,42.805,6.029,-0.051,-0.032,-0.026,100.0,100.0,100.0,13.4,1505.2,327.9,-0.7,1.8,2470.684,13.28,0.06,237.9
2021-09-17T05:55:03,42.805,6.029,-0.062,-0.06,-0.074,102.0,101.0,99.0,13.4,1505.2,327.6,-0.7,1.9,2470.648,13.28,0.086,225.9
2021-09-17T05:58:03,42.805,6.029,-0.031,-0.023,-0.039,100.0,102.0,100.0,13.3,1505.2,327.2,-0.8,1.8,2470.687,13.28,0.038,233.4
2021-09-17T06:04:03,42.805,6.029,-0.056,-0.033,-0.033,101.0,100.0,101.0,13.4,1505.2,327.9,-0.8,1.8,2470.69,13.28,0.064,239.5
2021-09-17T06:07:03,42.805,6.029,-0.069,-0.03,-0.028,101.0,100.0,99.0,13.4,1505.2,326.8,-0.8,1.8,2470.672,13.28,0.075,246.5
2021-09-17T06:10:03,42.805,6.029,-0.037,-0.025,-0.013,100.0,101.0,99.0,13.3,1505.2,325.5,-0.8,1.8,2470.681,13.28,0.044,236.0
2021-09-17T06:13:03,42.805,6.029,-0.045,-0.033,-0.025,101.0,101.0,100.0,13.4,1505.2,326.1,-0.7,1.8,2470.686,13.28,0.055,233.7
2021-09-17T06:16:03,42.805,6.029,-0.048,-0.032,-0.033,101.0,104.0,100.0,13.4,1505.2,326.3,-0.8,1.8,2470.68,13.28,0.057,236.3
2021-09-17T06:19:03,42.805,6.029,-0.024,-0.037,-0.021,100.0,101.0,100.0,13.4,1505.2,328.8,-0.8,1.8,2470.657,13.28,0.044,213.0
2021-09-17T06:22:03,42.805,6.029,-0.058,-0.044,-0.018,101.0,100.0,100.0,13.4,1505.2,328.3,-0.7,1.9,2470.671,13.28,0.072,232.8
2021-09-17T06:25:03,42.805,6.029,-0.056,-0.007,-0.005,100.0,100.0,100.0,13.4,1505.2,327.4,-0.8,1.8,2470.659,13.28,0.056,262.9
2021-09-17T06:28:03,42.805,6.029,-0.071,-0.054,-0.031,100.0,100.0,101.0,13.3,1505.2,329.5,-0.8,1.8,2470.668,13.28,0.089,232.7
2021-09-17T06:31:03,42.805,6.029,-0.052,-0.028,-0.029,101.0,100.0,100.0,13.4,1505.2,326.7,-0.7,1.8,2470.65,13.28,0.059,241.7
2021-09-17T06:34:03,42.805,6.029,-0.068,-0.025,-0.019,100.0,100.0,100.0,13.4,1505.2,329.3,-0.7,1.9,2470.619,13.28,0.072,249.8
2021-09-17T06:37:03,42.805,6.029,-0.065,-0.027,-0.036,101.0,100.0,101.0,13.4,1505.2,326.0,-0.8,1.8,2470.656,13.28,0.07,247.4
2021-09-17T06:40:03,42.805,6.029,-0.063,-0.017,-0.035,100.0,99.0,101.0,13.4,1505.2,329.8,-0.8,1.8,2470.664,13.28,0.065,254.9
2021-09-17T06:43:03,42.805,6.029,-0.027,-0.041,-0.007,101.0,99.0,101.0,13.4,1505.2,326.4,-0.7,1.8,2470.699,13.28,0.049,213.4
2021-09-17T06:46:03,42.805,6.029,-0.044,-0.017,0.001,100.0,100.0,101.0,13.4,1505.2,327.5,-0.7,1.8,2470.654,13.28,0.047,248.9
2021-09-17T06:49:03,42.805,6.029,-0.074,-0.008,-0.036,101.0,101.0,100.0,13.3,1505.2,329.5,-0.7,1.9,2470.665,13.28,0.074,263.8
2021-09-17T06:52:03,42.805,6.029,-0.051,-0.028,-0.06,100.0,99.0,101.0,13.3,1505.2,329.4,-0.7,1.8,2470.626,13.28,0.058,241.2
2021-09-17T06:55:03,42.805,6.029,-0.03,-0.027,-0.027,100.0,100.0,101.0,13.4,1505.2,326.3,-0.8,1.8,2470.643,13.28,0.04,228.0
2021-09-17T06:58:03,42.805,6.029,-0.068,-0.022,-0.034,100.0,100.0,100.0,13.4,1505.2,326.6,-0.7,1.8,2470.635,13.28,0.071,252.1
2021-09-17T07:04:03,42.805,6.029,-0.057,-0.029,-0.017,101.0,101.0,100.0,13.4,1505.2,327.9,-0.8,1.8,2470.673,13.28,0.063,243.0
2021-09-17T07:07:03,42.805,6.029,-0.064,-0.017,-0.006,99.0,101.0,100.0,13.4,1505.2,328.0,-0.8,1.8,2470.66,13.28,0.066,255.1
2021-09-17T07:10:03,42.805,6.029,-0.056,-0.046,-0.034,100.0,100.0,100.0,13.3,1505.2,330.5,-0.7,1.8,2470.618,13.28,0.072,230.6
2021-09-17T07:13:03,42.805,6.029,-0.068,-0.026,-0.096,100.0,100.0,100.0,13.4,1505.2,330.9,-0.7,1.8,2470.661,13.28,0.072,249.1
2021-09-17T07:16:03,42.805,6.029,-0.044,-0.031,-0.018,100.0,102.0,99.0,13.4,1505.2,331.2,-0.8,1.8,2470.691,13.28,0.053,234.8
2021-09-17T07:19:03,42.805,6.029,-0.029,-0.033,-0.018,99.0,102.0,100.0,13.4,1505.2,328.3,-0.7,1.8,2470.652,13.28,0.043,221.3
2021-09-17T07:22:03,42.805,6.029,-0.071,-0.036,-0.085,101.0,100.0,100.0,13.3,1505.2,329.3,-0.8,1.8,2470.611,13.28,0.079,243.1
2021-09-17T07:25:03,42.805,6.029,-0.063,-0.022,-0.037,100.0,100.0,100.0,13.4,1505.2,329.6,-0.8,1.8,2470.678,13.28,0.066,250.8
2021-09-17T07:28:03,42.805,6.029,-0.061,-0.023,-0.045,101.0,99.0,100.0,13.4,1505.2,329.8,-0.8,1.8,2470.608,13.28,0.065,249.3
2021-09-17T07:31:03,42.805,6.029,-0.056,-0.01,-0.015,101.0,100.0,99.0,13.4,1505.2,329.6,-0.8,1.8,2470.652,13.28,0.056,259.9
2021-09-17T07:34:03,42.805,6.029,-0.052,-0.045,-0.06,100.0,100.0,100.0,13.4,1505.2,327.7,-0.8,1.8,2470.667,13.28,0.068,229.1
2021-09-17T07:37:03,42.805,6.029,-0.049,-0.05,-0.053,102.0,100.0,100.0,13.4,1505.2,326.0,-0.7,1.8,2470.621,13.28,0.07,224.4
2021-09-17T07:40:03,42.805,6.029,-0.028,-0.031,-0.033,101.0,100.0,100.0,13.3,1505.2,327.5,-0.7,1.8,2470.582,13.28,0.041,222.1
2021-09-17T07:43:03,42.805,6.029,-0.064,-0.021,-0.021,101.0,100.0,99.0,13.4,1505.2,327.8,-0.7,1.8,2470.64,13.28,0.067,251.8
2021-09-17T07:46:03,42.805,6.029,-0.065,-0.04,-0.061,100.0,101.0,99.0,13.4,1505.2,328.5,-0.7,1.8,2470.635,13.28,0.076,238.4
2021-09-17T07:49:03,42.805,6.029,-0.059,-0.021,-0.032,100.0,100.0,100.0,13.3,1505.2,328.5,-0.7,1.8,2470.624,13.28,0.062,250.4
2021-09-17T07:52:03,42.805,6.029,-0.056,-0.003,-0.036,99.0,101.0,100.0,13.4,1505.2,327.6,-0.7,1.8,2470.608,13.28,0.056,266.9
2021-09-17T07:55:03,42.805,6.029,-0.055,-0.033,-0.042,101.0,100.0,100.0,13.4,1505.2,327.3,-0.7,1.8,2470.588,13.28,0.064,239.0
2021-09-17T07:58:03,42.805,6.029,-0.079,-0.008,-0.006,100.0,100.0,100.0,13.4,1505.2,325.9,-0.8,1.8,2470.621,13.28,0.079,264.2
2021-09-17T08:04:03,42.805,6.029,-0.048,-0.024,-0.013,100.0,100.0,100.0,13.3,1505.2,330.1,-0.8,1.8,2470.653,13.28,0.053,243.4
2021-09-17T08:07:03,42.805,6.029,-0.055,-0.04,-0.037,100.0,102.0,99.0,13.3,1505.2,330.5,-0.8,1.8,2470.688,13.28,0.068,234.0
2021-09-17T08:10:03,42.805,6.029,-0.04,-0.021,-0.03,101.0,100.0,99.0,13.4,1505.2,330.8,-0.8,1.8,2470.647,13.28,0.045,242.3
2021-09-17T08:13:03,42.805,6.029,-0.051,-0.005,-0.032,100.0,100.0,100.0,13.4,1505.2,329.3,-0.7,1.8,2470.655,13.28,0.051,264.4
2021-09-17T08:16:03,42.805,6.029,-0.052,-0.016,-0.006,100.0,102.0,100.0,13.4,1505.2,325.2,-0.8,1.8,2470.625,13.28,0.054,252.9
2021-09-17T08:19:03,42.805,6.029,-0.045,-0.016,-0.019,100.0,101.0,99.0,13.4,1505.2,325.4,-0.7,1.8,2470.651,13.28,0.047,250.4
2021-09-17T08:22:03,42.805,6.029,-0.057,0.002,-0.014,100.0,99.0,101.0,13.3,1505.2,325.6,-0.7,1.9,2470.618,13.28,0.057,272.0
2021-09-17T08:25:03,42.805,6.029,-0.046,-0.021,-0.013,100.0,100.0,100.0,13.3,1505.2,329.1,-0.7,1.8,2470.583,13.28,0.05,245.5
2021-09-17T08:28:03,42.805,6.029,-0.062,-0.015,-0.016,101.0,99.0,100.0,13.3,1505.2,330.0,-0.7,1.8,2470.603,13.28,0.063,256.4
2021-09-17T08:31:03,42.805,6.029,-0.066,-0.014,-0.034,100.0,101.0,100.0,13.4,1505.2,331.4,-0.8,1.8,2470.61,13.28,0.067,258.0
2021-09-17T08:34:03,42.805,6.029,-0.049,-0.015,-0.019,101.0,100.0,101.0,13.4,1505.2,330.8,-0.7,1.8,2470.619,13.28,0.051,253.0
2021-09-17T08:37:03,42.805,6.029,-0.054,-0.021,-0.04,101.0,99.0,101.0,13.3,1505.2,331.8,-0.8,1.8,2470.55,13.28,0.057,248.8
2021-09-17T08:40:03,42.805,6.029,-0.075,-0.015,-0.035,100.0,100.0,100.0,13.3,1505.2,330.1,-0.7,1.8,2470.63,13.28,0.076,258.7
2021-09-17T08:43:03,42.805,6.029,-0.064,-0.009,-0.047,100.0,100.0,100.0,13.4,1505.2,331.2,-0.7,1.8,2470.604,13.28,0.064,262.0
2021-09-17T08:46:03,42.805,6.029,-0.074,0.0,-0.025,101.0,100.0,100.0,13.4,1505.2,330.5,-0.8,1.8,2470.594,13.28,0.073,270.0
2021-09-17T08:49:03,42.805,6.029,-0.044,-0.007,-0.032,99.0,100.0,101.0,13.3,1505.2,328.5,-0.8,1.8,2470.625,13.28,0.044,261.0
2021-09-17T08:52:03,42.805,6.029,-0.049,-0.028,-0.043,100.0,100.0,100.0,13.3,1505.2,326.5,-0.8,1.8,2470.595,13.28,0.056,240.3
2021-09-17T08:55:03,42.805,6.029,-0.06,-0.01,0.012,100.0,100.0,100.0,13.4,1505.2,328.9,-0.7,1.8,2470.61,13.28,0.06,260.5
2021-09-17T08:58:03,42.805,6.029,-0.041,-0.018,-0.039,101.0,100.0,100.0,13.3,1505.2,326.8,-0.7,1.8,2470.586,13.28,0.044,246.3
2021-09-17T09:04:03,42.805,6.029,-0.032,-0.026,-0.021,101.0,100.0,101.0,13.4,1505.2,328.4,-0.8,1.8,2470.673,13.28,0.041,230.9
2021-09-17T09:07:03,42.805,6.029,-0.047,-0.039,-0.036,101.0,101.0,100.0,13.4,1505.2,327.9,-0.8,1.8,2470.592,13.28,0.061,230.3
2021-09-17T09:10:03,42.805,6.029,-0.044,-0.025,-0.031,100.0,99.0,100.0,13.4,1505.2,328.9,-0.7,1.8,2470.62,13.28,0.05,240.4
2021-09-17T09:13:03,42.805,6.029,-0.084,-0.02,-0.041,100.0,101.0,100.0,13.4,1505.2,329.1,-0.8,1.8,2470.62,13.28,0.086,256.6
2021-09-17T09:16:03,42.805,6.029,-0.067,-0.019,-0.021,101.0,99.0,100.0,13.4,1505.2,328.5,-0.7,1.8,2470.636,13.28,0.069,254.2
2021-09-17T09:19:03,42.805,6.029,-0.055,-0.033,-0.045,102.0,99.0,100.0,13.4,1505.2,325.8,-0.7,1.8,2470.604,13.28,0.064,239.0
2021-09-17T09:22:03,42.805,6.029,-0.054,-0.017,-0.03,102.0,99.0,100.0,13.3,1505.2,328.8,-0.7,1.8,2470.605,13.28,0.056,252.5
2021-09-17T09:25:03,42.805,6.029,-0.078,-0.008,-0.022,101.0,99.0,100.0,13.4,1505.2,330.2,-0.7,1.8,2470.594,13.28,0.078,264.1
2021-09-17T09:28:03,42.805,6.029,-0.063,-0.039,-0.066,101.0,100.0,100.0,13.4,1505.2,326.7,-0.7,1.8,2470.584,13.28,0.074,238.2
2021-09-17T09:31:03,42.805,6.029,-0.066,-0.007,-0.043,99.0,101.0,99.0,13.3,1505.2,331.5,-0.7,1.8,2470.559,13.28,0.066,263.9
2021-09-17T09:34:03,42.805,6.029,-0.062,-0.029,-0.045,101.0,100.0,99.0,13.3,1505.2,331.7,-0.8,1.8,2470.588,13.28,0.068,244.9
2021-09-17T09:37:03,42.805,6.029,-0.071,-0.037,-0.027,100.0,99.0,100.0,13.3,1505.2,329.4,-0.7,1.8,2470.578,13.28,0.08,242.5
2021-09-17T09:40:03,42.805,6.029,-0.051,-0.002,-0.01,101.0,101.0,99.0,13.4,1505.2,331.0,-0.8,1.8,2470.579,13.28,0.051,267.8
2021-09-17T09:43:03,42.805,6.029,-0.077,-0.008,-0.007,102.0,100.0,100.0,13.4,1505.2,328.2,-0.7,1.8,2470.599,13.28,0.077,264.1
2021-09-17T09:46:03,42.805,6.029,-0.059,-0.016,-0.006,100.0,101.0,100.0,13.4,1505.2,325.5,-0.8,1.8,2470.525,13.28,0.061,254.8
2021-09-17T09:49:03,42.805,6.029,-0.054,-0.017,-0.036,102.0,99.0,100.0,13.3,1505.2,329.2,-0.8,1.8,2470.537,13.28,0.056,252.5
2021-09-17T09:52:03,42.805,6.029,-0.066,-0.019,-0.009,100.0,100.0,101.0,13.3,1505.2,326.0,-0.7,1.8,2470.555,13.28,0.068,253.9